NC4J Weather Reports


time (UTC)temp
C
wind
direction
speed
KPH
gust
KPH
rain 1hr
cm
rain 24hr
cm
rain mn
cm
humidity
%
barometer
mb
20260509000404 15 118 0.0 0.0 0.00 0.00 0.00 63 1015.0
20260508235859 15 118 0.0 0.0 0.00 0.00 0.00 65 1015.2
20260508235357 15 118 1.6 0.0 0.00 0.00 0.00 62 1014.9
20260508234854 15 105 3.2 1.6 0.00 0.00 0.00 66 1015.1
20260508234350 15 79 1.6 0.0 0.00 0.00 0.00 62 1014.9
20260508233849 16 91 0.0 0.0 0.00 0.00 0.00 63 1014.9
20260508233348 16 93 1.6 1.6 0.00 0.00 0.00 61 1015.2
20260508232844 16 112 1.6 1.6 0.00 0.00 0.00 61 1015.1
20260508232340 16 71 1.6 1.6 0.00 0.00 0.00 65 1015.0
20260508231839 16 108 0.0 0.0 0.00 0.00 0.00 63 1015.0
20260508231335 16 108 0.0 0.0 0.00 0.00 0.00 60 1015.0
20260508230832 16 81 1.6 1.6 0.00 0.00 0.00 61 1014.8
20260508230328 16 81 0.0 0.0 0.00 0.00 0.00 59 1015.0
20260508225826 16 81 0.0 0.0 0.00 0.00 0.00 62 1014.9
20260508225322 16 81 0.0 0.0 0.00 0.00 0.00 59 1014.8
20260508224820 16 118 1.6 1.6 0.00 0.00 0.00 57 1014.9
20260508224318 16 106 0.0 0.0 0.00 0.00 0.00 59 1014.8
20260508223815 16 106 0.0 0.0 0.00 0.00 0.00 60 1014.9
20260508223312 16 98 1.6 1.6 0.00 0.00 0.00 60 1014.8
20260508222810 17 123 1.6 1.6 0.00 0.00 0.00 59 1015.0
20260508222307 17 77 1.6 1.6 0.00 0.00 0.00 58 1015.0
20260508221803 17 99 1.6 1.6 0.00 0.00 0.00 59 1014.8
20260508221259 17 97 0.0 0.0 0.00 0.00 0.00 58 1014.9
20260508220755 17 173 3.2 3.2 0.00 0.00 0.00 58 1014.9
20260508220252 17 106 1.6 1.6 0.00 0.00 0.00 56 1014.8
20260508215748 17 150 1.6 1.6 0.00 0.00 0.00 56 1014.8
20260508215245 17 131 1.6 1.6 0.00 0.00 0.00 55 1014.9
20260508214742 17 112 1.6 1.6 0.00 0.00 0.00 55 1014.8
20260508214239 17 105 3.2 3.2 0.00 0.00 0.00 54 1015.1
20260508213736 17 350 1.6 3.2 0.00 0.00 0.00 53 1015.0
20260508213233 17 101 0.0 0.0 0.00 0.00 0.00 55 1015.2
20260508212729 17 289 1.6 1.6 0.00 0.00 0.00 53 1015.0
20260508212225 17 151 1.6 1.6 0.00 0.00 0.00 54 1014.8
20260508211721 17 153 3.2 3.2 0.00 0.00 0.00 54 1014.6
20260508211217 17 130 0.0 0.0 0.00 0.00 0.00 55 1014.7
20260508210715 17 126 3.2 3.2 0.00 0.00 0.00 55 1014.6
20260508210212 17 142 3.2 3.2 0.00 0.00 0.00 53 1014.7
20260508205708 17 154 6.4 9.7 0.00 0.00 0.00 51 1014.7
20260508205205 18 96 0.0 0.0 0.00 0.00 0.00 54 1014.7
20260508204701 18 141 1.6 1.6 0.00 0.00 0.00 53 1014.9
20260508204157 18 163 3.2 3.2 0.00 0.00 0.00 51 1014.9
20260508203653 18 85 0.0 0.0 0.00 0.00 0.00 52 1014.8
20260508203150 18 333 1.6 1.6 0.00 0.00 0.00 51 1014.9
20260508202646 18 86 3.2 3.2 0.00 0.00 0.00 50 1015.0
20260508202144 18 109 1.6 1.6 0.00 0.00 0.00 54 1015.0
20260508201640 18 85 1.6 1.6 0.00 0.00 0.00 52 1014.9
20260508201137 18 80 0.0 0.0 0.00 0.00 0.00 52 1015.0
20260508200634 18 121 1.6 1.6 0.00 0.00 0.00 52 1014.9
20260508200130 17 192 1.6 1.6 0.00 0.00 0.00 51 1015.2
20260508195626 18 159 6.4 6.4 0.00 0.00 0.00 49 1015.5
20260508195123 18 309 3.2 3.2 0.00 0.00 0.00 48 1015.6
20260508194619 18 146 3.2 3.2 0.00 0.00 0.00 48 1015.5
20260508194117 18 139 3.2 4.8 0.00 0.00 0.00 48 1015.5
20260508193614 19 100 1.6 1.6 0.00 0.00 0.00 49 1015.7
20260508193110 18 33 1.6 1.6 0.00 0.00 0.00 48 1015.5
20260508192607 18 270 3.2 3.2 0.00 0.00 0.00 51 1016.0
20260508192104 18 165 0.0 0.0 0.00 0.00 0.00 49 1016.2
20260508191601 18 151 4.8 6.4 0.00 0.00 0.00 50 1016.1
20260508191057 18 101 4.8 4.8 0.00 0.00 0.00 47 1016.0
20260508190555 18 152 4.8 4.8 0.00 0.00 0.00 49 1016.1
20260508190051 18 119 1.6 1.6 0.00 0.00 0.00 47 1016.1
20260508185548 18 152 3.2 3.2 0.00 0.00 0.00 46 1016.3
20260508185046 18 154 1.6 1.6 0.00 0.00 0.00 46 1016.3
20260508184543 17 107 1.6 1.6 0.00 0.00 0.00 49 1016.4
20260508184039 17 228 1.6 1.6 0.00 0.00 0.00 50 1016.5
20260508183536 16 142 1.6 1.6 0.00 0.00 0.00 52 1016.5
20260508183032 16 147 0.0 1.6 0.00 0.00 0.00 53 1016.7
20260508182529 17 172 1.6 1.6 0.00 0.00 0.00 49 1016.7
20260508182025 17 148 4.8 4.8 0.00 0.00 0.00 49 1016.8
20260508181521 17 298 1.6 1.6 0.00 0.00 0.00 53 1016.8
20260508181019 17 177 6.4 6.4 0.00 0.00 0.00 49 1016.9
20260508180515 17 81 1.6 1.6 0.00 0.00 0.00 50 1016.8
20260508180011 18 275 3.2 4.8 0.00 0.00 0.00 47 1016.6
20260508175508 18 36 1.6 1.6 0.00 0.00 0.00 47 1016.9
20260508175005 17 79 0.0 0.0 0.00 0.00 0.00 50 1016.9
20260508174503 17 132 3.2 3.2 0.00 0.00 0.00 52 1017.2
20260508173959 17 118 3.2 4.8 0.00 0.00 0.00 50 1017.0
20260508173457 17 102 1.6 1.6 0.00 0.00 0.00 49 1017.0
20260508172952 16 166 4.8 4.8 0.00 0.00 0.00 54 1017.0
20260508172450 17 105 3.2 3.2 0.00 0.00 0.00 50 1017.2
20260508171946 17 65 1.6 1.6 0.00 0.00 0.00 49 1017.3
20260508171443 17 272 4.8 4.8 0.00 0.00 0.00 48 1017.2
20260508170939 17 96 3.2 3.2 0.00 0.00 0.00 52 1017.3
20260508170437 17 36 1.6 1.6 0.00 0.00 0.00 50 1017.4
20260508165933 17 219 1.6 3.2 0.00 0.00 0.00 51 1017.4
20260508165432 17 92 1.6 1.6 0.00 0.00 0.00 47 1017.7
20260508164927 16 334 1.6 1.6 0.00 0.00 0.00 52 1017.7
20260508164424 16 344 3.2 4.8 0.00 0.00 0.00 48 1017.8
20260508163921 16 357 3.2 3.2 0.00 0.00 0.00 47 1018.0
20260508163419 16 144 1.6 1.6 0.00 0.00 0.00 49 1018.1
20260508162914 16 140 3.2 3.2 0.00 0.00 0.00 46 1018.2
20260508162412 16 19 1.6 1.6 0.00 0.00 0.00 48 1018.3
20260508161909 16 324 3.2 3.2 0.00 0.00 0.00 46 1018.1
20260508161406 16 354 3.2 3.2 0.00 0.00 0.00 47 1018.2
20260508160903 15 135 1.6 1.6 0.00 0.00 0.00 47 1018.3
20260508160402 16 236 1.6 3.2 0.00 0.00 0.00 46 1018.4
20260508155858 15 83 1.6 1.6 0.00 0.00 0.00 50 1018.5
20260508155355 15 337 4.8 4.8 0.00 0.00 0.00 50 1018.6
20260508154852 15 5 1.6 1.6 0.00 0.00 0.00 49 1018.5
20260508154350 15 139 3.2 1.6 0.00 0.00 0.00 50 1018.6
20260508153846 15 75 1.6 1.6 0.00 0.00 0.00 51 1018.6
20260508153343 15 154 3.2 3.2 0.00 0.00 0.00 50 1018.7
20260508152839 14 264 3.2 3.2 0.00 0.00 0.00 50 1018.7
20260508152336 14 340 3.2 3.2 0.00 0.00 0.00 53 1018.8
20260508151832 14 310 1.6 1.6 0.00 0.00 0.00 52 1018.8
20260508151329 13 333 4.8 4.8 0.00 0.00 0.00 51 1018.7
20260508150825 13 45 3.2 3.2 0.00 0.00 0.00 49 1018.7
20260508150322 13 90 1.6 1.6 0.00 0.00 0.00 59 1018.7
20260508145819 13 107 3.2 3.2 0.00 0.00 0.00 55 1018.8
20260508145315 13 93 1.6 1.6 0.00 0.00 0.00 58 1018.8
20260508144812 13 45 0.0 0.0 0.00 0.00 0.00 59 1018.9
20260508144310 13 77 1.6 1.6 0.00 0.00 0.00 62 1018.8
20260508143807 13 99 1.6 1.6 0.00 0.00 0.00 62 1018.9
20260508143304 13 22 0.0 0.0 0.00 0.00 0.00 63 1018.8
20260508142800 12 28 0.0 0.0 0.00 0.00 0.00 58 1018.9
20260508142257 12 18 1.6 1.6 0.00 0.00 0.00 60 1019.1
20260508141754 12 93 1.6 1.6 0.00 0.00 0.00 66 1019.3
20260508141251 12 86 3.2 3.2 0.00 0.00 0.00 65 1018.9
20260508140748 12 58 1.6 1.6 0.00 0.00 0.00 66 1019.1
20260508140245 12 344 1.6 1.6 0.00 0.00 0.00 69 1019.0
20260508135741 12 343 0.0 0.0 0.00 0.00 0.00 71 1018.9
20260508135237 11 357 3.2 3.2 0.00 0.00 0.00 72 1019.0
20260508134733 11 358 0.0 0.0 0.00 0.00 0.00 75 1019.0
20260508134231 11 357 0.0 0.0 0.00 0.00 0.00 74 1019.3
20260508133727 11 55 0.0 0.0 0.00 0.00 0.00 75 1019.1
20260508133225 11 54 1.6 1.6 0.00 0.00 0.00 77 1019.3
20260508132722 11 58 0.0 0.0 0.00 0.00 0.00 74 1019.4
20260508132220 11 340 1.6 1.6 0.00 0.00 0.00 74 1019.3
20260508131715 10 341 0.0 0.0 0.00 0.00 0.00 77 1019.3
20260508131212 10 341 0.0 0.0 0.00 0.00 0.00 77 1019.0
20260508130708 10 341 1.6 1.6 0.00 0.00 0.00 79 1019.0
20260508130206 10 341 0.0 0.0 0.00 0.00 0.00 78 1019.0
20260508125701 10 341 0.0 0.0 0.00 0.00 0.00 81 1018.9
20260508125157 10 341 1.6 0.0 0.00 0.00 0.00 79 1019.0
20260508124656 10 340 0.0 0.0 0.00 0.00 0.00 81 1018.9
20260508124153 9 340 0.0 0.0 0.00 0.00 0.00 83 1018.9
20260508123651 9 340 0.0 0.0 0.00 0.00 0.00 86 1018.8
20260508123149 9 340 0.0 0.0 0.00 0.00 0.00 88 1019.1
20260508122644 8 340 0.0 0.0 0.00 0.00 0.00 89 1018.8
20260508122141 8 340 0.0 0.0 0.00 0.00 0.00 92 1018.9
20260508121639 8 340 0.0 0.0 0.00 0.00 0.00 94 1018.9
20260508121137 7 340 0.0 0.0 0.00 0.00 0.00 96 1018.7
20260508120634 7 340 0.0 0.0 0.00 0.00 0.00 97 1018.6
20260508120133 7 340 0.0 0.0 0.00 0.00 0.00 98 1018.7
20260508115630 7 340 0.0 0.0 0.00 0.00 0.00 98 1018.6
20260508115126 6 340 0.0 0.0 0.00 0.00 0.00 98 1018.6
20260508114624 6 340 0.0 0.0 0.00 0.00 0.00 98 1018.4
20260508114119 6 340 0.0 0.0 0.00 0.00 0.00 98 1018.6
20260508113617 6 340 0.0 0.0 0.00 0.00 0.00 97 1018.2
20260508113115 6 340 0.0 0.0 0.00 0.00 0.00 97 1018.3
20260508112611 6 339 0.0 0.0 0.00 0.00 0.00 97 1018.2
20260508112108 6 339 0.0 0.0 0.00 0.00 0.00 97 1018.1
20260508111605 6 339 0.0 0.0 0.00 0.00 0.00 97 1018.0
20260508111102 5 338 0.0 0.0 0.00 0.00 0.00 97 1018.0
20260508110600 5 338 0.0 0.0 0.00 0.00 0.00 97 1017.9
20260508110056 6 338 0.0 0.0 0.00 0.00 0.00 97 1017.9
20260508105551 5 338 0.0 0.0 0.00 0.00 0.00 97 1017.8
20260508105048 6 338 0.0 0.0 0.00 0.00 0.00 97 1017.6
20260508104546 6 338 0.0 0.0 0.00 0.00 0.00 97 1017.7
20260508104042 6 338 0.0 0.0 0.00 0.00 0.00 97 1017.4
20260508103539 6 338 0.0 0.0 0.00 0.00 0.00 97 1017.6
20260508103037 6 338 0.0 0.0 0.00 0.00 0.00 96 1017.4
20260508102534 6 338 0.0 0.0 0.00 0.00 0.00 96 1017.2
20260508102032 6 338 0.0 0.0 0.00 0.00 0.00 96 1017.2
20260508101529 6 338 0.0 0.0 0.00 0.00 0.00 96 1017.0
20260508101026 6 338 0.0 0.0 0.00 0.00 0.00 96 1017.0
20260508100524 6 338 0.0 0.0 0.00 0.00 0.00 96 1017.1
20260508100021 6 338 0.0 0.0 0.00 0.00 0.00 96 1016.8
20260508095518 6 338 0.0 0.0 0.00 0.00 0.00 96 1016.8
20260508095015 6 339 0.0 0.0 0.00 0.00 0.00 96 1016.8
20260508094512 6 339 0.0 0.0 0.00 0.00 0.00 96 1016.7
20260508094009 7 339 0.0 0.0 0.00 0.00 0.00 95 1016.8
20260508093506 7 339 0.0 0.0 0.00 0.00 0.00 96 1016.6
20260508093004 7 339 0.0 0.0 0.00 0.00 0.00 95 1016.9
20260508092500 7 339 1.6 1.6 0.00 0.00 0.00 95 1016.8
20260508092000 7 339 0.0 0.0 0.00 0.00 0.00 95 1016.6
20260508091456 7 339 0.0 0.0 0.00 0.00 0.00 95 1016.6
20260508090953 7 339 0.0 0.0 0.00 0.00 0.00 95 1016.5
20260508090452 7 339 0.0 0.0 0.00 0.00 0.00 94 1016.5
20260508085947 7 339 0.0 0.0 0.00 0.00 0.00 94 1016.6
20260508085444 7 339 0.0 0.0 0.00 0.00 0.00 94 1016.5
20260508084941 7 340 0.0 0.0 0.00 0.00 0.00 94 1016.7
20260508084437 8 340 0.0 0.0 0.00 0.00 0.00 94 1016.7
20260508083936 8 340 0.0 0.0 0.00 0.00 0.00 93 1016.6
20260508083432 8 340 1.6 1.6 0.00 0.00 0.00 93 1016.5
20260508082932 8 340 1.6 1.6 0.00 0.00 0.00 92 1016.5
20260508082430 8 340 1.6 1.6 0.00 0.00 0.00 91 1016.4
20260508081928 8 340 0.0 0.0 0.00 0.00 0.00 90 1016.4
20260508081424 8 340 0.0 0.0 0.00 0.00 0.00 89 1016.4
20260508080920 8 340 0.0 0.0 0.00 0.00 0.00 89 1016.3
20260508080419 8 340 0.0 0.0 0.00 0.00 0.00 88 1016.3
20260508075915 8 340 0.0 0.0 0.00 0.00 0.00 88 1016.3
20260508075412 9 340 0.0 0.0 0.00 0.00 0.00 88 1016.3
20260508074910 9 340 1.6 1.6 0.00 0.00 0.00 88 1016.2
20260508074407 9 341 1.6 1.6 0.00 0.00 0.00 88 1016.4
20260508073904 9 340 1.6 1.6 0.00 0.00 0.00 87 1016.3
20260508073402 9 336 3.2 3.2 0.00 0.00 0.00 88 1016.2
20260508072858 9 333 3.2 3.2 0.00 0.00 0.00 88 1016.5
20260508072354 9 320 3.2 3.2 0.00 0.00 0.00 88 1016.0
20260508071852 9 319 3.2 3.2 0.00 0.00 0.00 88 1016.2
20260508071350 9 353 0.0 0.0 0.00 0.00 0.00 89 1016.2
20260508070848 9 328 3.2 3.2 0.00 0.00 0.00 89 1016.3
20260508070346 9 317 3.2 3.2 0.00 0.00 0.00 90 1016.2
20260508065843 9 316 1.6 1.6 0.00 0.00 0.00 91 1016.1
20260508065341 9 305 3.2 3.2 0.00 0.00 0.00 92 1016.0
20260508064839 9 320 1.6 1.6 0.00 0.00 0.00 92 1015.8
20260508064336 9 323 1.6 1.6 0.00 0.00 0.00 91 1015.8
20260508063834 9 324 1.6 1.6 0.00 0.00 0.00 91 1015.6
20260508063331 9 323 1.6 1.6 0.00 0.00 0.00 92 1015.8
20260508062828 8 318 3.2 3.2 0.00 0.00 0.00 94 1016.2
20260508062326 8 322 3.2 3.2 0.00 0.00 0.00 94 1015.8
20260508061822 8 323 0.0 0.0 0.00 0.00 0.00 94 1016.0
20260508061320 8 214 0.0 0.0 0.00 0.00 0.00 94 1015.8
20260508060816 8 216 1.6 1.6 0.00 0.00 0.00 94 1015.8
20260508060315 8 171 0.0 0.0 0.00 0.00 0.00 94 1015.7
20260508055814 8 173 3.2 3.2 0.00 0.00 0.00 94 1016.0
20260508055313 8 147 0.0 1.6 0.00 0.00 0.00 93 1015.8
20260508054809 8 147 1.6 1.6 0.00 0.00 0.00 94 1015.8
20260508054306 8 146 1.6 1.6 0.00 0.00 0.00 94 1016.0
20260508053803 8 146 1.6 1.6 0.00 0.00 0.00 94 1016.2
20260508053300 8 146 1.6 1.6 0.00 0.00 0.00 94 1016.1
20260508052758 8 144 1.6 1.6 0.00 0.00 0.00 94 1016.2
20260508052255 8 144 1.6 1.6 0.00 0.00 0.00 94 1016.0
20260508051751 8 144 1.6 1.6 0.00 0.00 0.00 94 1016.0
20260508051246 8 141 1.6 1.6 0.00 0.00 0.00 93 1016.0
20260508050743 8 141 1.6 1.6 0.00 0.00 0.00 93 1015.8
20260508050240 8 141 0.0 0.0 0.00 0.00 0.00 93 1015.8
20260508045735 9 141 0.0 0.0 0.00 0.00 0.00 93 1015.7
20260508045234 9 141 1.6 1.6 0.00 0.00 0.00 93 1015.8
20260508044731 9 141 0.0 0.0 0.00 0.00 0.00 93 1015.8
20260508044228 9 150 1.6 1.6 0.00 0.00 0.00 92 1015.8
20260508043723 9 106 0.0 0.0 0.00 0.00 0.00 91 1015.7
20260508043221 9 109 3.2 3.2 0.00 0.00 0.00 90 1015.7
20260508042718 9 357 1.6 1.6 0.00 0.00 0.00 89 1015.6
20260508042215 10 357 1.6 1.6 0.00 0.00 0.00 89 1015.6
20260508041711 10 356 3.2 3.2 0.00 0.00 0.00 87 1015.5
20260508041209 10 133 1.6 1.6 0.00 0.00 0.00 88 1015.5
20260508040705 10 131 0.0 0.0 0.00 0.00 0.00 88 1015.6
20260508040202 10 115 3.2 3.2 0.00 1.12 1.12 88 1015.5
20260508035659 10 146 0.0 0.0 0.00 1.12 1.12 88 1015.6
20260508035157 10 145 0.0 1.6 0.00 1.12 1.12 87 1015.3
20260508034653 10 146 1.6 1.6 0.00 1.12 1.12 85 1015.6
20260508034150 10 146 0.0 0.0 0.00 1.12 1.12 85 1015.6
20260508033648 10 146 1.6 1.6 0.00 1.12 1.12 86 1015.5
20260508033146 10 145 0.0 0.0 0.00 1.12 1.12 88 1015.8
20260508032642 10 145 0.0 0.0 0.00 1.12 1.12 90 1016.0
20260508032140 9 145 0.0 0.0 0.00 1.12 1.12 91 1015.6
20260508031637 9 145 0.0 1.6 0.00 1.12 1.12 93 1016.1
20260508031133 9 146 1.6 1.6 0.00 1.12 1.12 93 1015.4
20260508030629 9 146 0.0 0.0 0.00 1.12 1.12 92 1015.6
20260508030127 9 146 1.6 1.6 0.00 1.12 1.12 93 1015.4
20260508025623 9 140 0.0 0.0 0.00 1.12 1.12 93 1015.5
20260508025121 9 141 1.6 1.6 0.00 1.12 1.12 92 1015.6
20260508024616 9 138 1.6 1.6 0.00 1.12 1.12 92 1015.6
20260508024114 9 139 0.0 0.0 0.00 1.12 1.12 92 1015.4
20260508023610 9 139 0.0 0.0 0.00 1.12 1.12 93 1015.1
20260508023108 9 139 1.6 1.6 0.00 1.12 1.12 92 1015.2
20260508022603 9 138 1.6 1.6 0.00 1.12 1.12 92 1015.0
20260508022101 9 152 0.0 0.0 0.00 1.12 1.12 92 1015.1
20260508021556 9 152 3.2 3.2 0.00 1.12 1.12 92 1014.9
20260508021052 9 153 0.0 0.0 0.00 1.12 1.12 91 1015.0
20260508020550 9 150 4.8 4.8 0.00 1.12 1.12 91 1014.9
20260508020048 9 136 0.0 0.0 0.00 1.12 1.12 90 1014.7
20260508015545 9 137 3.2 3.2 0.00 1.12 1.12 89 1014.9
20260508015042 9 135 0.0 0.0 0.00 1.12 1.12 88 1014.9
20260508014538 10 135 1.6 1.6 0.00 1.12 1.12 88 1014.7
20260508014034 10 137 3.2 3.2 0.00 1.12 1.12 87 1014.6
20260508013530 10 131 0.0 0.0 0.00 1.12 1.12 87 1014.5
20260508013028 10 131 1.6 1.6 0.00 1.12 1.12 86 1014.5
20260508012525 10 131 0.0 0.0 0.00 1.12 1.12 84 1014.4
20260508012022 10 132 3.2 3.2 0.00 1.12 1.12 84 1014.5
20260508011521 10 126 1.6 1.6 0.00 1.12 1.12 84 1014.4
20260508011017 10 126 1.6 1.6 0.00 1.12 1.12 84 1014.4
20260508010514 11 126 1.6 1.6 0.00 1.12 1.12 83 1014.5
20260508010012 11 126 1.6 1.6 0.00 1.12 1.12 80 1014.4
20260508005508 11 126 1.6 1.6 0.00 1.12 1.12 78 1014.1
20260508005005 11 126 0.0 0.0 0.00 1.12 1.12 79 1014.2
20260508004501 12 353 1.6 1.6 0.00 1.12 1.12 73 1014.0
20260508003958 11 65 3.2 3.2 0.00 1.12 1.12 73 1013.9
20260508003454 11 32 0.0 0.0 0.00 1.12 1.12 77 1013.8
20260508002952 12 96 3.2 3.2 0.00 1.12 1.12 75 1013.9
20260508002448 12 72 1.6 1.6 0.00 1.12 1.12 76 1013.8
20260508001944 12 312 0.0 0.0 0.00 1.12 1.12 71 1013.9
20260508001441 12 123 3.2 3.2 0.00 1.12 1.12 75 1013.6
20260508000937 12 109 4.8 6.4 0.00 1.12 1.12 71 1013.6